Year,Month,Day,Hour,Minute,Value (Times are PST for temperature in C)
2018,08,19,00,00,19.50
2018,08,19,00,01,19.50
2018,08,19,00,02,19.50
2018,08,19,00,03,19.50
2018,08,19,00,04,19.50
2018,08,19,00,05,19.40
2018,08,19,00,06,19.40
2018,08,19,00,07,19.40
2018,08,19,00,08,19.40
2018,08,19,00,09,19.40
2018,08,19,00,10,19.40
2018,08,19,00,11,19.40
2018,08,19,00,12,19.40
2018,08,19,00,13,19.40
2018,08,19,00,14,19.40
2018,08,19,00,15,19.30
2018,08,19,00,16,19.30
2018,08,19,00,17,19.30
2018,08,19,00,18,19.20
2018,08,19,00,19,19.20
2018,08,19,00,20,19.10
2018,08,19,00,21,19.10
2018,08,19,00,22,19.00
2018,08,19,00,23,18.90
2018,08,19,00,24,18.90
2018,08,19,00,25,18.80
2018,08,19,00,26,18.80
2018,08,19,00,27,18.80
2018,08,19,00,28,18.80
2018,08,19,00,29,18.90
2018,08,19,00,30,18.90
2018,08,19,00,31,18.90
2018,08,19,00,32,18.90
2018,08,19,00,33,18.90
2018,08,19,00,34,18.90
2018,08,19,00,35,18.90
2018,08,19,00,36,18.90
2018,08,19,00,37,18.80
2018,08,19,00,38,18.80
2018,08,19,00,39,18.80
2018,08,19,00,40,18.70
2018,08,19,00,41,18.70
2018,08,19,00,42,18.70
2018,08,19,00,43,18.60
2018,08,19,00,44,18.60
2018,08,19,00,45,18.60
2018,08,19,00,46,18.50
2018,08,19,00,47,18.50
2018,08,19,00,48,18.40
2018,08,19,00,49,18.40
2018,08,19,00,50,18.40
2018,08,19,00,51,18.30
2018,08,19,00,52,18.30
2018,08,19,00,53,18.20
2018,08,19,00,54,18.20
2018,08,19,00,55,18.10
2018,08,19,00,56,18.00
2018,08,19,00,57,17.90
2018,08,19,00,58,17.90
2018,08,19,00,59,17.80
2018,08,19,01,00,17.80
2018,08,19,01,01,17.70
2018,08,19,01,02,17.70
2018,08,19,01,03,17.60
2018,08,19,01,04,17.50
2018,08,19,01,05,17.50
2018,08,19,01,06,17.40
2018,08,19,01,07,17.40
2018,08,19,01,08,17.30
2018,08,19,01,09,17.30
2018,08,19,01,10,17.30
2018,08,19,01,11,17.20
2018,08,19,01,12,17.20
2018,08,19,01,13,17.20
2018,08,19,01,14,17.10
2018,08,19,01,15,17.10
2018,08,19,01,16,17.10
2018,08,19,01,17,17.10
2018,08,19,01,18,17.00
2018,08,19,01,19,17.00
2018,08,19,01,20,16.90
2018,08,19,01,21,16.90
2018,08,19,01,22,16.90
2018,08,19,01,23,16.80
2018,08,19,01,24,16.80
2018,08,19,01,25,16.80
2018,08,19,01,26,16.80
2018,08,19,01,27,16.80
2018,08,19,01,28,16.70
2018,08,19,01,29,16.70
2018,08,19,01,30,16.70
2018,08,19,01,31,16.70
2018,08,19,01,32,16.60
2018,08,19,01,33,16.60
2018,08,19,01,34,16.60
2018,08,19,01,35,16.50
2018,08,19,01,36,16.50
2018,08,19,01,37,16.40
2018,08,19,01,38,16.40
2018,08,19,01,39,16.40
2018,08,19,01,40,16.30
2018,08,19,01,41,16.30
2018,08,19,01,42,16.30
2018,08,19,01,43,16.30
2018,08,19,01,44,16.20
2018,08,19,01,45,16.20
2018,08,19,01,46,16.20
2018,08,19,01,47,16.20
2018,08,19,01,48,16.10
2018,08,19,01,49,16.10
2018,08,19,01,50,16.10
2018,08,19,01,51,16.10
2018,08,19,01,52,16.00
2018,08,19,01,53,16.00
2018,08,19,01,54,15.90
2018,08,19,01,55,15.90
2018,08,19,01,56,15.90
2018,08,19,01,57,15.80
2018,08,19,01,58,15.80
2018,08,19,01,59,15.80
2018,08,19,02,00,15.70
2018,08,19,02,01,15.70
2018,08,19,02,02,15.70
2018,08,19,02,03,15.70
2018,08,19,02,04,15.60
2018,08,19,02,05,15.60
2018,08,19,02,06,15.60
2018,08,19,02,07,15.50
2018,08,19,02,08,15.50
2018,08,19,02,09,15.40
2018,08,19,02,10,15.40
2018,08,19,02,11,15.40
2018,08,19,02,12,15.30
2018,08,19,02,13,15.30
2018,08,19,02,14,15.30
2018,08,19,02,15,15.30
2018,08,19,02,16,15.20
2018,08,19,02,17,15.20
2018,08,19,02,18,15.20
2018,08,19,02,19,15.20
2018,08,19,02,20,15.20
2018,08,19,02,21,15.20
2018,08,19,02,22,15.10
2018,08,19,02,23,15.10
2018,08,19,02,24,15.10
2018,08,19,02,25,15.10
2018,08,19,02,26,15.10
2018,08,19,02,27,15.00
2018,08,19,02,28,15.00
2018,08,19,02,29,15.00
2018,08,19,02,30,15.00
2018,08,19,02,31,14.90
2018,08,19,02,32,14.90
2018,08,19,02,33,14.90
2018,08,19,02,34,14.90
2018,08,19,02,35,14.90
2018,08,19,02,36,14.90
2018,08,19,02,37,14.80
2018,08,19,02,38,14.80
2018,08,19,02,39,14.80
2018,08,19,02,40,14.80
2018,08,19,02,41,14.80
2018,08,19,02,42,14.80
2018,08,19,02,43,14.70
2018,08,19,02,44,14.70
2018,08,19,02,45,14.70
2018,08,19,02,46,14.70
2018,08,19,02,47,14.70
2018,08,19,02,48,14.60
2018,08,19,02,49,14.60
2018,08,19,02,50,14.60
2018,08,19,02,51,14.60
2018,08,19,02,52,14.60
2018,08,19,02,53,14.50
2018,08,19,02,54,14.50
2018,08,19,02,55,14.50
2018,08,19,02,56,14.50
2018,08,19,02,57,14.50
2018,08,19,02,58,14.40
2018,08,19,02,59,14.40
2018,08,19,03,00,14.40
2018,08,19,03,01,14.40
2018,08,19,03,02,14.40
2018,08,19,03,03,14.40
2018,08,19,03,04,14.40
2018,08,19,03,05,14.30
2018,08,19,03,06,14.30
2018,08,19,03,07,14.30
2018,08,19,03,08,14.30
2018,08,19,03,09,14.30
2018,08,19,03,10,14.30
2018,08,19,03,11,14.20
2018,08,19,03,12,14.20
2018,08,19,03,13,14.20
2018,08,19,03,14,14.20
2018,08,19,03,15,14.20
2018,08,19,03,16,14.10
2018,08,19,03,17,14.10
2018,08,19,03,18,14.10
2018,08,19,03,19,14.10
2018,08,19,03,20,14.10
2018,08,19,03,21,14.10
2018,08,19,03,22,14.10
2018,08,19,03,23,14.00
2018,08,19,03,24,14.00
2018,08,19,03,25,14.00
2018,08,19,03,26,14.00
2018,08,19,03,27,14.00
2018,08,19,03,28,13.90
2018,08,19,03,29,13.90
2018,08,19,03,30,13.90
2018,08,19,03,31,13.90
2018,08,19,03,32,13.90
2018,08,19,03,33,13.90
2018,08,19,03,34,13.80
2018,08,19,03,35,13.80
2018,08,19,03,36,13.80
2018,08,19,03,37,13.80
2018,08,19,03,38,13.80
2018,08,19,03,39,13.70
2018,08,19,03,40,13.70
2018,08,19,03,41,13.70
2018,08,19,03,42,13.70
2018,08,19,03,43,13.70
2018,08,19,03,44,13.70
2018,08,19,03,45,13.70
2018,08,19,03,46,13.70
2018,08,19,03,47,13.60
2018,08,19,03,48,13.60
2018,08,19,03,49,13.60
2018,08,19,03,50,13.60
2018,08,19,03,51,13.60
2018,08,19,03,52,13.60
2018,08,19,03,53,13.60
2018,08,19,03,54,13.50
2018,08,19,03,55,13.50
2018,08,19,03,56,13.40
2018,08,19,03,57,13.40
2018,08,19,03,58,13.40
2018,08,19,03,59,13.40
2018,08,19,04,00,13.40
2018,08,19,04,01,13.30
2018,08,19,04,02,13.30
2018,08,19,04,03,13.30
2018,08,19,04,04,13.30
2018,08,19,04,05,13.30
2018,08,19,04,06,13.30
2018,08,19,04,07,13.30
2018,08,19,04,08,13.20
2018,08,19,04,09,13.20
2018,08,19,04,10,13.20
2018,08,19,04,11,13.20
2018,08,19,04,12,13.20
2018,08,19,04,13,13.20
2018,08,19,04,14,13.20
2018,08,19,04,15,13.10
2018,08,19,04,16,13.10
2018,08,19,04,17,13.10
2018,08,19,04,18,13.10
2018,08,19,04,19,13.10
2018,08,19,04,20,13.00
2018,08,19,04,21,13.00
2018,08,19,04,22,13.00
2018,08,19,04,23,12.90
2018,08,19,04,24,12.90
2018,08,19,04,25,12.90
2018,08,19,04,26,12.90
2018,08,19,04,27,12.90
2018,08,19,04,28,12.90
2018,08,19,04,29,12.90
2018,08,19,04,30,12.80
2018,08,19,04,31,12.80
2018,08,19,04,32,12.80
2018,08,19,04,33,12.80
2018,08,19,04,34,12.80
2018,08,19,04,35,12.80
2018,08,19,04,36,12.70
2018,08,19,04,37,12.70
2018,08,19,04,38,12.70
2018,08,19,04,39,12.70
2018,08,19,04,40,12.70
2018,08,19,04,41,12.70
2018,08,19,04,42,12.70
2018,08,19,04,43,12.60
2018,08,19,04,44,12.60
2018,08,19,04,45,12.60
2018,08,19,04,46,12.60
2018,08,19,04,47,12.60
2018,08,19,04,48,12.60
2018,08,19,04,49,12.60
2018,08,19,04,50,12.60
2018,08,19,04,51,12.60
2018,08,19,04,52,12.50
2018,08,19,04,53,12.50
2018,08,19,04,54,12.50
2018,08,19,04,55,12.50
2018,08,19,04,56,12.40
2018,08,19,04,57,12.40
2018,08,19,04,58,12.40
2018,08,19,04,59,12.40
2018,08,19,05,00,12.40
2018,08,19,05,01,12.40
2018,08,19,05,02,12.40
2018,08,19,05,03,12.30
2018,08,19,05,04,12.30
2018,08,19,05,05,12.30
2018,08,19,05,06,12.30
2018,08,19,05,07,12.30
2018,08,19,05,08,12.30
2018,08,19,05,09,12.30
2018,08,19,05,10,12.20
2018,08,19,05,11,12.20
2018,08,19,05,12,12.20
2018,08,19,05,13,12.20
2018,08,19,05,14,12.20
2018,08,19,05,15,12.10
2018,08,19,05,16,12.10
2018,08,19,05,17,12.10
2018,08,19,05,18,12.10
2018,08,19,05,19,12.10
2018,08,19,05,20,12.10
2018,08,19,05,21,12.10
2018,08,19,05,22,12.10
2018,08,19,05,23,12.00
2018,08,19,05,24,12.00
2018,08,19,05,25,12.00
2018,08,19,05,26,11.90
2018,08,19,05,27,11.90
2018,08,19,05,28,11.90
2018,08,19,05,29,11.90
2018,08,19,05,30,11.90
2018,08,19,05,31,11.90
2018,08,19,05,32,11.90
2018,08,19,05,33,11.80
2018,08,19,05,34,11.80
2018,08,19,05,35,11.80
2018,08,19,05,36,11.80
2018,08,19,05,37,11.80
2018,08,19,05,38,11.80
2018,08,19,05,39,11.80
2018,08,19,05,40,11.80
2018,08,19,05,41,11.80
2018,08,19,05,42,11.80
2018,08,19,05,43,11.70
2018,08,19,05,44,11.70
2018,08,19,05,45,11.70
2018,08,19,05,46,11.70
2018,08,19,05,47,11.70
2018,08,19,05,48,11.70
2018,08,19,05,49,11.70
2018,08,19,05,50,11.70
2018,08,19,05,51,11.70
2018,08,19,05,52,11.70
2018,08,19,05,53,11.70
2018,08,19,05,54,11.60
2018,08,19,05,55,11.60
2018,08,19,05,56,11.60
2018,08,19,05,57,11.60
2018,08,19,05,58,11.60
2018,08,19,05,59,11.60
2018,08,19,06,00,11.60
2018,08,19,06,01,11.60
2018,08,19,06,02,11.50
2018,08,19,06,03,11.50
2018,08,19,06,04,11.50
2018,08,19,06,05,11.50
2018,08,19,06,06,11.50
2018,08,19,06,07,11.40
2018,08,19,06,08,11.40
2018,08,19,06,09,11.40
2018,08,19,06,10,11.40
2018,08,19,06,11,11.40
2018,08,19,06,12,11.40
2018,08,19,06,13,11.40
2018,08,19,06,14,11.30
2018,08,19,06,15,11.30
2018,08,19,06,16,11.30
2018,08,19,06,17,11.30
2018,08,19,06,18,11.30
2018,08,19,06,19,11.30
2018,08,19,06,20,11.30
2018,08,19,06,21,11.30
2018,08,19,06,22,11.20
2018,08,19,06,23,11.20
2018,08,19,06,24,11.20
2018,08,19,06,25,11.20
2018,08,19,06,26,11.20
2018,08,19,06,27,11.20
2018,08,19,06,28,11.20
2018,08,19,06,29,11.20
2018,08,19,06,30,11.20
2018,08,19,06,31,11.10
2018,08,19,06,32,11.10
2018,08,19,06,33,11.10
2018,08,19,06,34,11.10
2018,08,19,06,35,11.10
2018,08,19,06,36,11.10
2018,08,19,06,37,11.10
2018,08,19,06,38,11.10
2018,08,19,06,39,11.10
2018,08,19,06,40,11.10
2018,08,19,06,41,11.10
2018,08,19,06,42,11.10
2018,08,19,06,43,11.10
2018,08,19,06,44,11.20
2018,08,19,06,45,11.10
2018,08,19,06,46,11.20
2018,08,19,06,47,11.20
2018,08,19,06,48,11.20
2018,08,19,06,49,11.20
2018,08,19,06,50,11.20
2018,08,19,06,51,11.20
2018,08,19,06,52,11.20
2018,08,19,06,53,11.20
2018,08,19,06,54,11.20
2018,08,19,06,55,11.20
2018,08,19,06,56,11.10
2018,08,19,06,57,11.10
2018,08,19,06,58,11.10
2018,08,19,06,59,11.20
2018,08,19,07,00,11.20
2018,08,19,07,01,11.20
2018,08,19,07,02,11.20
2018,08,19,07,03,11.20
2018,08,19,07,04,11.20
2018,08,19,07,05,11.20
2018,08,19,07,06,11.20
2018,08,19,07,07,11.20
2018,08,19,07,08,11.20
2018,08,19,07,09,11.20
2018,08,19,07,10,11.20
2018,08,19,07,11,11.20
2018,08,19,07,12,11.20
2018,08,19,07,13,11.20
2018,08,19,07,14,11.20
2018,08,19,07,15,11.20
2018,08,19,07,16,11.30
2018,08,19,07,17,11.30
2018,08,19,07,18,11.30
2018,08,19,07,19,11.30
2018,08,19,07,20,11.30
2018,08,19,07,21,11.30
2018,08,19,07,22,11.30
2018,08,19,07,23,11.30
2018,08,19,07,24,11.30
2018,08,19,07,25,11.30
2018,08,19,07,26,11.30
2018,08,19,07,27,11.30
2018,08,19,07,28,11.30
2018,08,19,07,29,11.30
2018,08,19,07,30,11.30
2018,08,19,07,31,11.30
2018,08,19,07,32,11.30
2018,08,19,07,33,11.30
2018,08,19,07,34,11.30
2018,08,19,07,35,11.30
2018,08,19,07,36,11.40
2018,08,19,07,37,11.40
2018,08,19,07,38,11.40
2018,08,19,07,39,11.40
2018,08,19,07,40,11.40
2018,08,19,07,41,11.50
2018,08,19,07,42,11.50
2018,08,19,07,43,11.60
2018,08,19,07,44,11.70
2018,08,19,07,45,11.70
2018,08,19,07,46,11.80
2018,08,19,07,47,11.90
2018,08,19,07,48,11.90
2018,08,19,07,49,12.00
2018,08,19,07,50,12.00
2018,08,19,07,51,12.10
2018,08,19,07,52,12.20
2018,08,19,07,53,12.20
2018,08,19,07,54,12.20
2018,08,19,07,55,12.30
2018,08,19,07,56,12.40
2018,08,19,07,57,12.40
2018,08,19,07,58,12.50
2018,08,19,07,59,12.60
2018,08,19,08,00,12.60
2018,08,19,08,01,12.70
2018,08,19,08,02,12.80
2018,08,19,08,03,12.80
2018,08,19,08,04,12.90
2018,08,19,08,05,13.00
2018,08,19,08,06,13.10
2018,08,19,08,07,13.10
2018,08,19,08,08,13.20
2018,08,19,08,09,13.20
2018,08,19,08,10,13.30
2018,08,19,08,11,13.40
2018,08,19,08,12,13.40
2018,08,19,08,13,13.50
2018,08,19,08,14,13.50
2018,08,19,08,15,13.60
2018,08,19,08,16,13.60
2018,08,19,08,17,13.70
2018,08,19,08,18,13.80
2018,08,19,08,19,13.80
2018,08,19,08,20,13.90
2018,08,19,08,21,13.90
2018,08,19,08,22,14.00
2018,08,19,08,23,14.10
2018,08,19,08,24,14.20
2018,08,19,08,25,14.20
2018,08,19,08,26,14.30
2018,08,19,08,27,14.30
2018,08,19,08,28,14.40
2018,08,19,08,29,14.40
2018,08,19,08,30,14.40
2018,08,19,08,31,14.40
2018,08,19,08,32,14.50
2018,08,19,08,33,14.50
2018,08,19,08,34,14.60
2018,08,19,08,35,14.60
2018,08,19,08,36,14.60
2018,08,19,08,37,14.70
2018,08,19,08,38,14.70
2018,08,19,08,39,14.80
2018,08,19,08,40,14.80
2018,08,19,08,41,14.80
2018,08,19,08,42,14.80
2018,08,19,08,43,14.80
2018,08,19,08,44,14.90
2018,08,19,08,45,14.90
2018,08,19,08,46,14.90
2018,08,19,08,47,15.00
2018,08,19,08,48,15.00
2018,08,19,08,49,15.10
2018,08,19,08,50,15.10
2018,08,19,08,51,15.20
2018,08,19,08,52,15.20
2018,08,19,08,53,15.30
2018,08,19,08,54,15.30
2018,08,19,08,55,15.40
2018,08,19,08,56,15.40
2018,08,19,08,57,15.50
2018,08,19,08,58,15.50
2018,08,19,08,59,15.60
2018,08,19,09,00,15.60
2018,08,19,09,01,15.60
2018,08,19,09,02,15.70
2018,08,19,09,03,15.70
2018,08,19,09,04,15.70
2018,08,19,09,05,15.70
2018,08,19,09,06,15.80
2018,08,19,09,07,15.80
2018,08,19,09,08,15.80
2018,08,19,09,09,15.90
2018,08,19,09,10,16.00
2018,08,19,09,11,16.00
2018,08,19,09,12,16.10
2018,08,19,09,13,16.10
2018,08,19,09,14,16.20
2018,08,19,09,15,16.20
2018,08,19,09,16,16.20
2018,08,19,09,17,16.30
2018,08,19,09,18,16.30
2018,08,19,09,19,16.30
2018,08,19,09,20,16.40
2018,08,19,09,21,16.50
2018,08,19,09,22,16.50
2018,08,19,09,23,16.50
2018,08,19,09,24,16.60
2018,08,19,09,25,16.60
2018,08,19,09,26,16.60
2018,08,19,09,27,16.60
2018,08,19,09,28,16.60
2018,08,19,09,29,16.70
2018,08,19,09,30,16.70
2018,08,19,09,31,16.70
2018,08,19,09,32,16.70
2018,08,19,09,33,16.70
2018,08,19,09,34,16.70
2018,08,19,09,35,16.70
2018,08,19,09,36,16.80
2018,08,19,09,37,16.80
2018,08,19,09,38,16.80
2018,08,19,09,39,16.80
2018,08,19,09,40,16.90
2018,08,19,09,41,16.90
2018,08,19,09,42,17.00
2018,08,19,09,43,17.00
2018,08,19,09,44,17.10
2018,08,19,09,45,17.10
2018,08,19,09,46,17.10
2018,08,19,09,47,17.10
2018,08,19,09,48,17.20
2018,08,19,09,49,17.20
2018,08,19,09,50,17.20
2018,08,19,09,51,17.20
2018,08,19,09,52,17.20
2018,08,19,09,53,17.30
2018,08,19,09,54,17.30
2018,08,19,09,55,17.30
2018,08,19,09,56,17.30
2018,08,19,09,57,17.40
2018,08,19,09,58,17.50
2018,08,19,09,59,17.50
2018,08,19,10,00,17.60
2018,08,19,10,01,17.60
2018,08,19,10,02,17.70
2018,08,19,10,03,17.70
2018,08,19,10,04,17.80
2018,08,19,10,05,17.80
2018,08,19,10,06,17.80
2018,08,19,10,07,17.90
2018,08,19,10,08,17.90
2018,08,19,10,09,17.90
2018,08,19,10,10,17.90
2018,08,19,10,11,17.90
2018,08,19,10,12,18.00
2018,08,19,10,13,18.00
2018,08,19,10,14,18.00
2018,08,19,10,15,18.10
2018,08,19,10,16,18.10
2018,08,19,10,17,18.10
2018,08,19,10,18,18.20
2018,08,19,10,19,18.20
2018,08,19,10,20,18.30
2018,08,19,10,21,18.30
2018,08,19,10,22,18.30
2018,08,19,10,23,18.40
2018,08,19,10,24,18.50
2018,08,19,10,25,18.50
2018,08,19,10,26,18.60
2018,08,19,10,27,18.60
2018,08,19,10,28,18.60
2018,08,19,10,29,18.70
2018,08,19,10,30,18.70
2018,08,19,10,31,18.70
2018,08,19,10,32,18.70
2018,08,19,10,33,18.80
2018,08,19,10,34,18.80
2018,08,19,10,35,18.90
2018,08,19,10,36,19.00
2018,08,19,10,37,19.10
2018,08,19,10,38,19.20
2018,08,19,10,39,19.20
2018,08,19,10,40,19.30
2018,08,19,10,41,19.30
2018,08,19,10,42,19.30
2018,08,19,10,43,19.40
2018,08,19,10,44,19.40
2018,08,19,10,45,19.40
2018,08,19,10,46,19.50
2018,08,19,10,47,19.50
2018,08,19,10,48,19.60
2018,08,19,10,49,19.60
2018,08,19,10,50,19.70
2018,08,19,10,51,19.80
2018,08,19,10,52,19.80
2018,08,19,10,53,19.80
2018,08,19,10,54,19.90
2018,08,19,10,55,20.00
2018,08,19,10,56,20.10
2018,08,19,10,57,20.20
2018,08,19,10,58,20.30
2018,08,19,10,59,20.30
2018,08,19,11,00,20.40
2018,08,19,11,01,20.40
2018,08,19,11,02,20.50
2018,08,19,11,03,20.60
2018,08,19,11,04,20.60
2018,08,19,11,05,20.70
2018,08,19,11,06,20.80
2018,08,19,11,07,20.90
2018,08,19,11,08,21.00
2018,08,19,11,09,21.00
2018,08,19,11,10,21.10
2018,08,19,11,11,21.20
2018,08,19,11,12,21.20
2018,08,19,11,13,21.10
2018,08,19,11,14,21.10
2018,08,19,11,15,21.10
2018,08,19,11,16,21.10
2018,08,19,11,17,21.10
2018,08,19,11,18,21.10
2018,08,19,11,19,21.10
2018,08,19,11,20,21.20
2018,08,19,11,21,21.20
2018,08,19,11,22,21.20
2018,08,19,11,23,21.30
2018,08,19,11,24,21.40
2018,08,19,11,25,21.50
2018,08,19,11,26,21.50
2018,08,19,11,27,21.60
2018,08,19,11,28,21.60
2018,08,19,11,29,21.60
2018,08,19,11,30,21.60
2018,08,19,11,31,21.60
2018,08,19,11,32,21.70
2018,08,19,11,33,21.80
2018,08,19,11,34,21.90
2018,08,19,11,35,22.00
2018,08,19,11,36,22.10
2018,08,19,11,37,22.20
2018,08,19,11,38,22.40
2018,08,19,11,39,22.50
2018,08,19,11,40,22.60
2018,08,19,11,41,22.70
2018,08,19,11,42,22.80
2018,08,19,11,43,22.90
2018,08,19,11,44,23.00
2018,08,19,11,45,23.10
2018,08,19,11,46,23.20
2018,08,19,11,47,23.30
2018,08,19,11,48,23.30
2018,08,19,11,49,23.40
2018,08,19,11,50,23.40
2018,08,19,11,51,23.50
2018,08,19,11,52,23.50
2018,08,19,11,53,23.60
2018,08,19,11,54,23.60
2018,08,19,11,55,23.60
2018,08,19,11,56,23.70
2018,08,19,11,57,23.70
2018,08,19,11,58,23.70
2018,08,19,11,59,23.70
2018,08,19,12,00,23.70
2018,08,19,12,01,23.70
2018,08,19,12,02,23.70
2018,08,19,12,03,23.70
2018,08,19,12,04,23.70
2018,08,19,12,05,23.80
2018,08,19,12,06,23.80
2018,08,19,12,07,23.90
2018,08,19,12,08,23.90
2018,08,19,12,09,24.00
2018,08,19,12,10,24.00
2018,08,19,12,11,24.10
2018,08,19,12,12,24.10
2018,08,19,12,13,24.10
2018,08,19,12,14,24.10
2018,08,19,12,15,24.10
2018,08,19,12,16,24.00
2018,08,19,12,17,24.00
2018,08,19,12,18,24.00
2018,08,19,12,19,24.00
2018,08,19,12,20,24.10
2018,08,19,12,21,24.10
2018,08,19,12,22,24.10
2018,08,19,12,23,24.10
2018,08,19,12,24,24.10
2018,08,19,12,25,24.20
2018,08,19,12,26,24.20
2018,08,19,12,27,24.30
2018,08,19,12,28,24.40
2018,08,19,12,29,24.40
2018,08,19,12,30,24.50
2018,08,19,12,31,24.50
2018,08,19,12,32,24.60
2018,08,19,12,33,24.60
2018,08,19,12,34,24.60
2018,08,19,12,35,24.60
2018,08,19,12,36,24.60
2018,08,19,12,37,24.70
2018,08,19,12,38,24.70
2018,08,19,12,39,24.80
2018,08,19,12,40,24.90
2018,08,19,12,41,25.00
2018,08,19,12,42,25.10
2018,08,19,12,43,25.20
2018,08,19,12,44,25.30
2018,08,19,12,45,25.40
2018,08,19,12,46,25.40
2018,08,19,12,47,25.50
2018,08,19,12,48,25.60
2018,08,19,12,49,25.60
2018,08,19,12,50,25.60
2018,08,19,12,51,25.60
2018,08,19,12,52,25.60
2018,08,19,12,53,25.60
2018,08,19,12,54,25.60
2018,08,19,12,55,25.60
2018,08,19,12,56,25.50
2018,08,19,12,57,25.50
2018,08,19,12,58,25.50
2018,08,19,12,59,25.50
2018,08,19,13,00,25.50
2018,08,19,13,01,25.50
2018,08,19,13,02,25.60
2018,08,19,13,03,25.60
2018,08,19,13,04,25.70
2018,08,19,13,05,25.80
2018,08,19,13,06,25.90
2018,08,19,13,07,26.00
2018,08,19,13,08,26.10
2018,08,19,13,09,26.20
2018,08,19,13,10,26.30
2018,08,19,13,11,26.30
2018,08,19,13,12,26.30
2018,08,19,13,13,26.30
2018,08,19,13,14,26.30
2018,08,19,13,15,26.30
2018,08,19,13,16,26.40
2018,08,19,13,17,26.40
2018,08,19,13,18,26.40
2018,08,19,13,19,26.40
2018,08,19,13,20,26.40
2018,08,19,13,21,26.40
2018,08,19,13,22,26.40
2018,08,19,13,23,26.50
2018,08,19,13,24,26.50
2018,08,19,13,25,26.50
2018,08,19,13,26,26.50
2018,08,19,13,27,26.60
2018,08,19,13,28,26.60
2018,08,19,13,29,26.60
2018,08,19,13,30,26.70
2018,08,19,13,31,26.70
2018,08,19,13,32,26.70
2018,08,19,13,33,26.80
2018,08,19,13,34,26.90
2018,08,19,13,35,26.90
2018,08,19,13,36,27.00
2018,08,19,13,37,27.10
2018,08,19,13,38,27.10
2018,08,19,13,39,27.20
2018,08,19,13,40,27.20
2018,08,19,13,41,27.20
2018,08,19,13,42,27.30
2018,08,19,13,43,27.30
2018,08,19,13,44,27.40
2018,08,19,13,45,27.40
2018,08,19,13,46,27.50
2018,08,19,13,47,27.50
2018,08,19,13,48,27.50
2018,08,19,13,49,27.50
2018,08,19,13,50,27.50
2018,08,19,13,51,27.50
2018,08,19,13,52,27.60
2018,08,19,13,53,27.60
2018,08,19,13,54,27.70
2018,08,19,13,55,27.80
2018,08,19,13,56,27.80
2018,08,19,13,57,27.90
2018,08,19,13,58,27.90
2018,08,19,13,59,27.90
2018,08,19,14,00,28.00
2018,08,19,14,01,28.00
2018,08,19,14,02,28.10
2018,08,19,14,03,28.20
2018,08,19,14,04,28.20
2018,08,19,14,05,28.30
2018,08,19,14,06,28.30
2018,08,19,14,07,28.40
2018,08,19,14,08,28.40
2018,08,19,14,09,28.50
2018,08,19,14,10,28.50
2018,08,19,14,11,28.60
2018,08,19,14,12,28.60
2018,08,19,14,13,28.70
2018,08,19,14,14,28.80
2018,08,19,14,15,28.90
2018,08,19,14,16,29.00
2018,08,19,14,17,29.10
2018,08,19,14,18,29.20
2018,08,19,14,19,29.30
2018,08,19,14,20,29.40
2018,08,19,14,21,29.40
2018,08,19,14,22,29.30
2018,08,19,14,23,29.30
2018,08,19,14,24,29.30
2018,08,19,14,25,29.30
2018,08,19,14,26,29.30
2018,08,19,14,27,29.30
2018,08,19,14,28,29.20
2018,08,19,14,29,29.20
2018,08,19,14,30,29.20
2018,08,19,14,31,29.20
2018,08,19,14,32,29.20
2018,08,19,14,33,29.30
2018,08,19,14,34,29.30
2018,08,19,14,35,29.30
2018,08,19,14,36,29.30
2018,08,19,14,37,29.40
2018,08,19,14,38,29.40
2018,08,19,14,39,29.40
2018,08,19,14,40,29.40
2018,08,19,14,41,29.40
2018,08,19,14,42,29.40
2018,08,19,14,43,29.40
2018,08,19,14,44,29.50
2018,08,19,14,45,29.50
2018,08,19,14,46,29.50
2018,08,19,14,47,29.60
2018,08,19,14,48,29.60
2018,08,19,14,49,29.60
2018,08,19,14,50,29.70
2018,08,19,14,51,29.80
2018,08,19,14,52,29.80
2018,08,19,14,53,29.70
2018,08,19,14,54,29.70
2018,08,19,14,55,29.70
2018,08,19,14,56,29.70
2018,08,19,14,57,29.70
2018,08,19,14,58,29.70
2018,08,19,14,59,29.70
2018,08,19,15,00,29.70
2018,08,19,15,01,29.80
2018,08,19,15,02,29.80
2018,08,19,15,03,29.80
2018,08,19,15,04,29.90
2018,08,19,15,05,29.90
2018,08,19,15,06,29.90
2018,08,19,15,07,30.00
2018,08,19,15,08,30.00
2018,08,19,15,09,30.00
2018,08,19,15,10,30.00
2018,08,19,15,11,30.10
2018,08,19,15,12,30.10
2018,08,19,15,13,30.10
2018,08,19,15,14,30.10
2018,08,19,15,15,30.20
2018,08,19,15,16,30.20
2018,08,19,15,17,30.20
2018,08,19,15,18,30.30
2018,08,19,15,19,30.30
2018,08,19,15,20,30.40
2018,08,19,15,21,30.40
2018,08,19,15,22,30.40
2018,08,19,15,23,30.30
2018,08,19,15,24,30.30
2018,08,19,15,25,30.30
2018,08,19,15,26,30.30
2018,08,19,15,27,30.30
2018,08,19,15,28,30.30
2018,08,19,15,29,30.30
2018,08,19,15,30,30.40
2018,08,19,15,31,30.50
2018,08,19,15,32,30.50
2018,08,19,15,33,30.60
2018,08,19,15,34,30.70
2018,08,19,15,35,30.70
2018,08,19,15,36,30.70
2018,08,19,15,37,30.60
2018,08,19,15,38,30.60
2018,08,19,15,39,30.50
2018,08,19,15,40,30.50
2018,08,19,15,41,30.50
2018,08,19,15,42,30.40
2018,08,19,15,43,30.40
2018,08,19,15,44,30.40
2018,08,19,15,45,30.40
2018,08,19,15,46,30.40
2018,08,19,15,47,30.30
2018,08,19,15,48,30.30
2018,08,19,15,49,30.30
2018,08,19,15,50,30.30
2018,08,19,15,51,30.30
2018,08,19,15,52,30.30
2018,08,19,15,53,30.30
2018,08,19,15,54,30.30
2018,08,19,15,55,30.30
2018,08,19,15,56,30.30
2018,08,19,15,57,30.20
2018,08,19,15,58,30.20
2018,08,19,15,59,30.20
2018,08,19,16,00,30.20
2018,08,19,16,01,30.20
2018,08,19,16,02,30.20
2018,08,19,16,03,30.10
2018,08,19,16,04,30.10
2018,08,19,16,05,30.10
2018,08,19,16,06,30.10
2018,08,19,16,07,30.10
2018,08,19,16,08,30.10
2018,08,19,16,09,30.10
2018,08,19,16,10,30.10
2018,08,19,16,11,30.10
2018,08,19,16,12,30.00
2018,08,19,16,13,29.90
2018,08,19,16,14,29.90
2018,08,19,16,15,29.70
2018,08,19,16,16,29.60
2018,08,19,16,17,29.50
2018,08,19,16,18,29.40
2018,08,19,16,19,29.40
2018,08,19,16,20,29.30
2018,08,19,16,21,29.20
2018,08,19,16,22,29.10
2018,08,19,16,23,29.10
2018,08,19,16,24,29.00
2018,08,19,16,25,28.90
2018,08,19,16,26,28.90
2018,08,19,16,27,28.80
2018,08,19,16,28,28.70
2018,08,19,16,29,28.70
2018,08,19,16,30,28.60
2018,08,19,16,31,28.60
2018,08,19,16,32,28.60
2018,08,19,16,33,28.50
2018,08,19,16,34,28.40
2018,08,19,16,35,28.40
2018,08,19,16,36,28.40
2018,08,19,16,37,28.40
2018,08,19,16,38,28.30
2018,08,19,16,39,28.30
2018,08,19,16,40,28.30
2018,08,19,16,41,28.30
2018,08,19,16,42,28.30
2018,08,19,16,43,28.30
2018,08,19,16,44,28.30
2018,08,19,16,45,28.30
2018,08,19,16,46,28.30
2018,08,19,16,47,28.20
2018,08,19,16,48,28.20
2018,08,19,16,49,28.20
2018,08,19,16,50,28.20
2018,08,19,16,51,28.10
2018,08,19,16,52,28.10
2018,08,19,16,53,28.10
2018,08,19,16,54,28.10
2018,08,19,16,55,28.10
2018,08,19,16,56,28.10
2018,08,19,16,57,28.10
2018,08,19,16,58,28.00
2018,08,19,16,59,28.00
2018,08,19,17,00,27.90
2018,08,19,17,01,27.90
2018,08,19,17,02,27.90
2018,08,19,17,03,27.90
2018,08,19,17,04,27.90
2018,08,19,17,05,27.90
2018,08,19,17,06,27.80
2018,08,19,17,07,27.80
2018,08,19,17,08,27.80
2018,08,19,17,09,27.70
2018,08,19,17,10,27.70
2018,08,19,17,11,27.60
2018,08,19,17,12,27.60
2018,08,19,17,13,27.50
2018,08,19,17,14,27.50
2018,08,19,17,15,27.50
2018,08,19,17,16,27.40
2018,08,19,17,17,27.40
2018,08,19,17,18,27.40
2018,08,19,17,19,27.40